Preview of NWS' New Version of Forecast
This preview is not operational and should not be used for support decisions.

Regional Weather Roundup (RWR)

Issued by National Weather Service (NWS)

                            
000
ASUS43 KMKX 231100
RWRWI 

WISCONSIN REGIONAL WEATHER ROUNDUP
NATIONAL WEATHER SERVICE MILWAUKEE/SULLIVAN WI
600 AM CDT FRI AUG 23 2019

NOTE: "FAIR" INDICATES FEW OR NO CLOUDS BELOW 12,000 FEET WITH NO
SIGNIFICANT WEATHER AND/OR OBSTRUCTIONS TO VISIBILITY.

WIZ001-002-006>008-014>016-023>028-231200-
NORTHWEST WISCONSIN
  
CITY           SKY/WX    TMP DP  RH WIND       PRES   REMARKS
SUPERIOR ARPT  FOG       39  39 100 CALM      30.24S VSB 1/2          
ASHLAND        FOG       37  37 100 SW3       30.26R VSB 1/2          
HAYWARD        FAIR      44  42  93 N6        30.25R                  
SIREN          FAIR      43  41  92 CALM      30.22S                  
CUMBERLAND     FAIR      48  46  93 E3        30.22S                  
RICE LAKE      FAIR      49  33  55 CALM      30.23S                  
CHETEK         FAIR      52  50  90 CALM      30.22R                  
LADYSMITH      FAIR      49  48  97 E6        30.25R                  
EAU CLAIRE     NOT AVBL                                               
MENOMONIE      MOCLDY    52  49  90 NE3       30.20S                  
NEW RICHMOND   FAIR      53  49  87 E5        30.19S                  
OSCEOLA        FAIR      53  52  94 CALM      30.22S                  
$$
 
WIZ003>005-009-010-017-018-231200-
NORTH CENTRAL WISCONSIN
  
CITY           SKY/WX    TMP DP  RH WIND       PRES   REMARKS
MANITOWISH WTR FAIR      44  44 100 CALM      30.26R                  
ARBOR VITAE    FOG       42  40  93 CALM      30.26R VSB 1/2          
WOODRUFF       FOG       42  40  93 CALM      30.26R VSB 1/2          
RHINELANDER    FAIR      43  41  93 N3        30.26R                  
EAGLE RIVER    FAIR      38  38 100 CALM      30.25R FOG              
LAND O LAKES   FOG       35  35 100 CALM      30.29R VSB 1/4          
PHILLIPS       FOG       41  41 100 CALM      30.25R VSB 1            
TOMAHAWK       FAIR      36  35  97 CALM      30.26R                  
MEDFORD        FAIR      44  44  99 NE7       30.23R                  
MERRILL        FAIR      39  39 100 CALM      30.26R                  
$$
 
WIZ029-030-035-036-043>047-231200-
CENTRAL WISCONSIN
  
CITY           SKY/WX    TMP DP  RH WIND       PRES   REMARKS
WAUSAU         FAIR      48  47  96 CALM      30.23R                  
MOSINEE        PTCLDY    46  46 100 E7        30.24R                  
MARSHFIELD     CLOUDY    53  50  89 E8        30.21R                  
STEVENS POINT  CLOUDY    49  49 100 E5        30.23R                  
WAUPACA        FAIR      53  52  97 CALM      30.23R                  
WAUTOMA        CLOUDY    55  53  93 NE6       30.22R                  
WISC RAPIDS    CLOUDY    56  51  84 E8        30.21S                  
CAMP DOUGLAS   NOT AVBL                                               
$$
 
WIZ011>013-019>022-031-037>040-048>050-231200-
NORTHEAST WISCONSIN
  
CITY           SKY/WX    TMP DP  RH WIND       PRES   REMARKS
ANTIGO         FAIR      42  42 100 CALM      30.26R                  
SHAWANO        FAIR      54  52  91 N7        30.24R                  
OCONTO         FAIR      49  48  98 CALM      30.23R                  
STURGEON BAY   FAIR      54  49  83 NE6       30.23R                  
GREEN BAY      FAIR      50  48  93 CALM      30.23R                  
MANITOWOC      FAIR      53  50  89 N6        30.22R                  
APPLETON       PTCLDY    52  48  87 NE7       30.21R                  
CLINTONVILLE   FAIR      50  47  90 N3        30.23S                  
OSHKOSH        FAIR      60  53  77 NE9       30.20S                  
$$
 
WIZ032>034-041-042-053>061-231200-
SOUTHWEST WISCONSIN
  
CITY           SKY/WX    TMP DP  RH WIND       PRES   REMARKS
LA CROSSE      FAIR      60  55  83 CALM      30.17R                  
SPARTA         FAIR      50  50 100 CALM      30.19S                  
VIROQUA        CLOUDY    57  57 100 E6        30.18S                  
BOSCOBEL       FOG       54  52  93 CALM      30.17R VSB 3/4          
PRAIRIE DU CHI FAIR      56  54  94 CALM      30.16R                  
PLATTEVILLE    FAIR      56  56 100 E8        30.16S                  
$$

WIZ056-057-062-063-064-067-068-231200-
SOUTH CENTRAL WISCONSIN
  
CITY           SKY/WX    TMP DP  RH WIND       PRES   REMARKS
REEDSBURG      FAIR      56  56 100 CALM      30.18R                  
BARABOO/DELLS  FAIR      55  53  94 CALM      30.18S                  
LONE ROCK      NOT AVBL                                               
MINERAL POINT    N/A     57  55  94 NE5       30.17R                  
MADISON        MOCLDY    59  53  80 NE5       30.18R                  
MIDDLETON      FAIR      56  11  16 CALM      30.18S                  
WATERTOWN      MOCLDY    56  55  94 NE7       30.17S                  
MONROE         FAIR      56  54  92 NE8       30.16S                  
JANESVILLE     MOCLDY    57  57 100 CALM      30.16R                  
$$
 
WIZ051-052-058>065-066-070>072-231200-
SOUTHEAST WISCONSIN
  
CITY           SKY/WX    TMP DP  RH WIND       PRES   REMARKS
MILWAUKEE      MOCLDY    65  51  60 NE10      30.17R                  
WAUKESHA       CLOUDY    55  50  82 NE5       30.19S                  
MILWAUKEE/TIMM FAIR      57  50  77 N7        30.19R                  
RACINE         MOCLDY    64  51  62 NE8       30.18R                  
KENOSHA        CLOUDY    61  56  83 NE8       30.16S                  
FOND DU LAC    FAIR      56  50  80 E5        30.20                   
SHEBOYGAN      NOT AVBL                                               
WEST BEND      FAIR      50  50 100 CALM      30.19F FOG              
JUNEAU         FAIR      55  52  91 NE3       30.20R                  
$$

LSZ147-162-231200-
LAKE SUPERIOR
  
STATION/POSITION TIME  TEMP    WIND        PRES    WAVE
                       AIR SEA DIR/SP/G            HT/PER
                 (UTC) (F)     (DEG/KT/KT) (MB)    (FT/S)
W MID LAKE BUOY  0950   60 63   30/  2/  2 1023.7R   0
DEVILS ISLAND    1000   60     140/  6/  8 1024.2R
SAXON HARBOR     1030   48     210/  1/  4 1023.7R
$$
 
LMZ867-665-643>646-231200-
LAKE MICHIGAN
  
STATION/POSITION TIME  TEMP    WIND        PRES    WAVE
                       AIR SEA DIR/SP/G            HT/PER
                 (UTC) (F)     (DEG/KT/KT) (MB)    (FT/S)
S GREEN BAY BUOY 1030   65 69   10/ 12/ 16 1023.2R
N MID LAKE BUOY  1040   61 70  350/  8/ 10 1023.4R
NORTHPORT PIER   1040   60     340/  5/  6 1023.0R
KEWAUNEE LAKESHO 1024   55     340/  1/  5 1022.3
SHEBOYGAN LAKESH 1000   61     330/ 10/ 11 1022.5R
PORT WASHINGTON  1030   59     330/  7/ 11 1023.0S
ATWATER BUOY     1030   68 69   50/ 12/ 16 1021.7S   3/ 5
S MID LAKE BUOY  1040   66 73   60/ 14/ 19 1021.6R
KENOSHA   LAKESH 1000   68      80/ 14/ 16 1020.7
$$

TC  - TEMPERATURE IN CELSIUS
VSB - VISIBILITY IN STATUTE MILES
WCI - WIND CHILL INDEX
HX  - HEAT INDEX